User: anonymous   Login
Location: Unspecified
(0.0000°N, 0.0000°E)
Time: 14:49:47
(UTC+00:00)
Language:

NTS 1 - Orbit

View from above orbital plane
View from above orbital plane
View from above satellite
View from above satellite

Ground track
Ground track

The orbit data is extracted from the following two-line orbital elements,

1  7369U 74054A   17205.77095564 +.00000035 +00000-0 +00000-0 0  9991
2  7369 124.9171 258.0175 0075998 244.8946 339.9333 03.07214293482788
Epoch (UTC): 24 July 2017 18:30:10
Eccentricity: 0.0075998
inclination: 124.9171°
perigee height: 13458 km
apogee height: 13762 km
right ascension of ascending node: 258.0175°
argument of perigee: 244.8946°
revolutions per day: 3.07214293
mean anomaly at epoch: 339.9333°
orbit number at epoch: 48278

The dashed part of the orbit path shows where the satellite is in the earth's shadow,  

DLR